• In United Kingdom
  • List of Countries
  • For 7 days
  • Water Temperature
  • Satellite Maps
  • Weather Map
  • Weather Widgets
  • user-avatar
    Login

    Hourly Weather Skorzenno

    Today, 13 November, Tuesday

    Time Temperature Precipitation Wind Pressure Humidity
    00:00 +8°C° 0 mm 4 mps 756 mmHg 90%
    01:00 +8°C° 0 mm 4 mps 756 mmHg 91%
    02:00 +8°C° 0 mm 4 mps 756 mmHg 92%
    03:00 +8°C° 0 mm 4 mps 756 mmHg 93%
    04:00 +7°C° 0 mm 4 mps 756 mmHg 93%
    05:00 +7°C° 0 mm 4 mps 756 mmHg 93%
    06:00 +8°C° 0 mm 3 mps 756 mmHg 93%
    07:00 +8°C° 0 mm 3 mps 756 mmHg 93%
    08:00 +8°C° 0 mm 3 mps 756 mmHg 90%
    09:00 +9°C° 0 mm 3 mps 756 mmHg 86%
    10:00 +10°C° 0 mm 3 mps 757 mmHg 83%
    11:00 +10°C° 0.1 mm 3 mps 757 mmHg 82%
    12:00 +10°C° 0.1 mm 3 mps 756 mmHg 81%
    13:00 +10°C° 0.1 mm 3 mps 756 mmHg 81%
    14:00 +10°C° 1 mm 3 mps 756 mmHg 84%
    15:00 +10°C° 1 mm 4 mps 756 mmHg 87%
    16:00 +10°C° 1 mm 4 mps 756 mmHg 90%
    17:00 +8°C° 0.3 mm 4 mps 757 mmHg 89%
    18:00 +8°C° 0.3 mm 4 mps 757 mmHg 88%
    19:00 +8°C° 0.3 mm 4 mps 757 mmHg 88%
    20:00 +8°C° 0 mm 4 mps 757 mmHg 88%
    21:00 +7°C° 0 mm 4 mps 758 mmHg 89%
    22:00 +7°C° 0 mm 4 mps 758 mmHg 90%
    23:00 +7°C° 0 mm 4 mps 758 mmHg 89%

    Tomorrow, 14 November, Wednesday

    Time Temperature Precipitation Wind Pressure Humidity
    00:00 +7°C° 0 mm 4 mps 758 mmHg 89%
    01:00 +7°C° 0 mm 4 mps 758 mmHg 88%
    02:00 +7°C° 0 mm 4 mps 758 mmHg 86%
    03:00 +7°C° 0 mm 5 mps 758 mmHg 85%
    04:00 +7°C° 0 mm 5 mps 758 mmHg 84%
    05:00 +7°C° 0.1 mm 5 mps 759 mmHg 84%
    06:00 +7°C° 0.1 mm 5 mps 759 mmHg 84%
    07:00 +8°C° 0.1 mm 5 mps 759 mmHg 85%
    08:00 +8°C° 0.1 mm 5 mps 759 mmHg 83%
    09:00 +8°C° 0.1 mm 5 mps 760 mmHg 82%
    10:00 +9°C° 0.1 mm 5 mps 760 mmHg 80%
    11:00 +9°C° 0.1 mm 5 mps 760 mmHg 79%
    12:00 +9°C° 0.1 mm 5 mps 761 mmHg 77%
    13:00 +10°C° 0.1 mm 4 mps 761 mmHg 76%
    14:00 +10°C° 0.1 mm 4 mps 761 mmHg 78%
    15:00 +10°C° 0.1 mm 4 mps 762 mmHg 80%
    16:00 +9°C° 0.1 mm 3 mps 762 mmHg 82%
    17:00 +9°C° 0 mm 3 mps 762 mmHg 84%
    18:00 +9°C° 0 mm 3 mps 763 mmHg 86%
    19:00 +8°C° 0 mm 2 mps 763 mmHg 88%
    20:00 +8°C° 0 mm 2 mps 763 mmHg 90%
    21:00 +7°C° 0 mm 2 mps 763 mmHg 91%
    22:00 +7°C° 0 mm 2 mps 764 mmHg 93%
    23:00 +6°C° 0 mm 2 mps 764 mmHg 93%

    Day after tomorrow, 15 November, Thursday

    Time Temperature Precipitation Wind Pressure Humidity
    00:00 +6°C° 0 mm 2 mps 764 mmHg 94%
    01:00 +6°C° 0 mm 2 mps 764 mmHg 94%
    02:00 +7°C° 0 mm 1 mps 764 mmHg 95%
    03:00 +6°C° 0 mm 1 mps 764 mmHg 95%
    04:00 +6°C° 0 mm 1 mps 764 mmHg 95%
    05:00 +6°C° 0 mm 1 mps 765 mmHg 95%
    06:00 +6°C° 0 mm 1 mps 765 mmHg 94%
    07:00 +7°C° 0 mm 1 mps 765 mmHg 94%
    08:00 +7°C° 0 mm 1 mps 765 mmHg 91%
    09:00 +8°C° 0 mm 1 mps 766 mmHg 88%
    10:00 +9°C° 0 mm 1 mps 766 mmHg 84%
    11:00 +9°C° 0 mm 1 mps 766 mmHg 81%
    12:00 +10°C° 0 mm 1 mps 766 mmHg 78%
    13:00 +10°C° 0 mm 1 mps 766 mmHg 74%
    14:00 +10°C° 0 mm 1 mps 766 mmHg 78%
    15:00 +9°C° 0 mm 1 mps 766 mmHg 81%
    16:00 +8°C° 0 mm 1 mps 766 mmHg 84%
    17:00 +8°C° 0 mm 1 mps 766 mmHg 85%
    18:00 +8°C° 0 mm 1 mps 766 mmHg 86%
    19:00 +8°C° 0 mm 1 mps 767 mmHg 87%
    20:00 +7°C° 0 mm 1 mps 767 mmHg 89%
    21:00 +7°C° 0 mm 1 mps 767 mmHg 90%
    22:00 +6°C° 0 mm 2 mps 767 mmHg 91%
    23:00 +5°C° 0 mm 2 mps 767 mmHg 92%

    16 November, Friday

    Time Temperature Precipitation Wind Pressure Humidity
    00:00 +5°C° 0 mm 2 mps 768 mmHg 93%
    01:00 +5°C° 0 mm 2 mps 768 mmHg 94%
    02:00 +4°C° 0 mm 2 mps 768 mmHg 95%
    03:00 +4°C° 0 mm 2 mps 768 mmHg 95%
    04:00 +4°C° 0 mm 2 mps 768 mmHg 96%
    05:00 +4°C° 0 mm 2 mps 768 mmHg 96%
    06:00 +4°C° 0 mm 2 mps 768 mmHg 96%
    07:00 +3°C° 0 mm 2 mps 769 mmHg 96%
    08:00 +4°C° 0 mm 2 mps 769 mmHg 92%
    09:00 +5°C° 0 mm 2 mps 769 mmHg 89%
    10:00 +6°C° 0 mm 2 mps 770 mmHg 85%
    11:00 +6°C° 0 mm 2 mps 770 mmHg 82%
    12:00 +7°C° 0 mm 2 mps 770 mmHg 78%
    13:00 +8°C° 0 mm 2 mps 770 mmHg 74%
    14:00 +7°C° 0 mm 2 mps 770 mmHg 77%
    15:00 +6°C° 0 mm 2 mps 770 mmHg 80%
    16:00 +6°C° 0 mm 1 mps 770 mmHg 83%
    17:00 +5°C° 0 mm 2 mps 770 mmHg 85%
    18:00 +5°C° 0 mm 2 mps 770 mmHg 86%
    19:00 +4°C° 0 mm 2 mps 770 mmHg 87%
    20:00 +4°C° 0 mm 2 mps 770 mmHg 88%
    21:00 +4°C° 0 mm 2 mps 771 mmHg 89%
    22:00 +3°C° 0 mm 2 mps 771 mmHg 90%
    23:00 +3°C° 0 mm 2 mps 771 mmHg 91%

    17 November, Saturday

    Time Temperature Precipitation Wind Pressure Humidity
    00:00 +3°C° 0 mm 2 mps 771 mmHg 91%
    01:00 +4°C° 0 mm 1 mps 771 mmHg 92%
    02:00 +3°C° 0 mm 1 mps 771 mmHg 92%
    03:00 +3°C° 0 mm 1 mps 771 mmHg 92%
    04:00 +3°C° 0 mm 1 mps 771 mmHg 93%
    05:00 +3°C° 0 mm 1 mps 771 mmHg 93%
    06:00 +3°C° 0 mm 1 mps 771 mmHg 93%
    07:00 +3°C° 0 mm 1 mps 771 mmHg 93%
    08:00 +4°C° 0 mm 1 mps 771 mmHg 88%
    09:00 +4°C° 0 mm 1 mps 771 mmHg 84%
    10:00 +5°C° 0 mm 1 mps 772 mmHg 80%
    11:00 +6°C° 0 mm 1 mps 771 mmHg 76%
    12:00 +7°C° 0 mm 1 mps 771 mmHg 72%
    13:00 +7°C° 0 mm 1 mps 771 mmHg 68%
    14:00 +7°C° 0 mm 1 mps 771 mmHg 71%
    15:00 +6°C° 0 mm 1 mps 771 mmHg 74%
    16:00 +6°C° 0 mm 1 mps 771 mmHg 77%
    17:00 +5°C° 0 mm 1 mps 770 mmHg 79%
    18:00 +4°C° 0 mm 0 mps 770 mmHg 80%
    19:00 +3°C° 0 mm 0 mps 770 mmHg 82%
    20:00 +3°C° 0 mm 0 mps 770 mmHg 82%
    21:00 +3°C° 0 mm 0 mps 770 mmHg 82%
    22:00 +3°C° 0 mm 0 mps 770 mmHg 82%
    23:00 +4°C° 0 mm 1 mps 770 mmHg 82%

    18 November, Sunday

    Time Temperature Precipitation Wind Pressure Humidity
    00:00 +4°C° 0 mm 1 mps 769 mmHg 83%
    01:00 +4°C° 0 mm 1 mps 769 mmHg 83%
    02:00 +4°C° 0 mm 1 mps 769 mmHg 83%
    03:00 +2°C° 0 mm 2 mps 768 mmHg 84%
    04:00 +2°C° 0 mm 2 mps 768 mmHg 84%
    05:00 +2°C° 0 mm 2 mps 767 mmHg 85%
    06:00 +2°C° 0 mm 2 mps 767 mmHg 85%
    07:00 +3°C° 0 mm 2 mps 766 mmHg 86%
    08:00 +3°C° 0 mm 3 mps 766 mmHg 85%
    09:00 +4°C° 0 mm 3 mps 766 mmHg 83%
    10:00 +5°C° 0 mm 3 mps 766 mmHg 82%
    11:00 +6°C° 0 mm 4 mps 765 mmHg 82%
    12:00 +6°C° 0 mm 4 mps 765 mmHg 81%
    13:00 +7°C° 0 mm 4 mps 764 mmHg 80%
    14:00 +7°C° 0 mm 4 mps 764 mmHg 81%
    15:00 +6°C° 0 mm 4 mps 763 mmHg 81%
    16:00 +6°C° 0 mm 5 mps 763 mmHg 82%
    17:00 +6°C° 0 mm 5 mps 763 mmHg 82%
    18:00 +5°C° 0 mm 5 mps 763 mmHg 81%
    19:00 +5°C° 0 mm 5 mps 762 mmHg 81%
    20:00 +3°C° 0 mm 5 mps 762 mmHg 79%
    21:00 +3°C° 0 mm 5 mps 762 mmHg 77%
    22:00 +3°C° 0 mm 5 mps 762 mmHg 75%
    23:00 +3°C° 0 mm 5 mps 762 mmHg 75%
    Show more